{"data":{"norad_id":53230,"intl_designator":"2022-084AT","name":"STARLINK-4364","alt_names":[],"object_type":"PAYLOAD","status":"ACTIVE","operator":null,"country":"US","launch_date":"2022-07-22","launch_site_code":"AFWTR","launch_vehicle":null,"mission":null,"orbit_class":"UNKNOWN","rcs_meters":null,"size_class":null,"mass_kg":null,"dimensions":null,"purposes":["comms"],"wikipedia_slug":null,"has_3d_model":false,"image_url":null,"decayed_at":null,"tle_current":{"epoch":"2026-09-20T02:37:29.663040Z","epoch_age_seconds":109206,"freshness":"FRESH","line1":"1 53230U 22084AT  26263.10937110  .00002016  00000+0  64759-4 0  9993","line2":"2 53230  97.2844 318.8226 0001145  93.0337 267.1037 15.33441660228691","mean_motion":15.3344166,"eccentricity":0.0001145,"inclination_deg":97.2844,"raan_deg":318.8226,"arg_perigee_deg":93.0337,"mean_anomaly_deg":267.1037,"bstar":6.4759e-5,"rev_number":22869,"period_min":93.906409194596,"perigee_km":464.76950946846,"apogee_km":466.3367145041,"semimajor_km":6843.6901119863,"source":"CELESTRAK","updated_at":"2026-09-20T09:00:40.196492Z"}}}